Terminal Aerodrome Forecast
Issued by NWS

Home | Current Version | Previous Version | Graphics & Text | Print | Product List | Glossary On
Versions: 1 2 3 4 5 6 7 8 9 10 11 12 13 14 15
000
FTUS43 KFGF 030500
TAFBJI
TAF
KBJI 030531Z 0306/0406 17014KT P6SM OVC060
     FM031000 22010KT 4SM -SN OVC020
     FM031400 30015G22KT 2SM -SN OVC012=

USA.gov is the U.S. government's official web portal to all federal, state and local government web resources and services.